Location: Newcastle Observatory
(43.9158°N, 78.5831°W)
Time: 05:46:32
(UTC-05:00)

Amateur Radio Satellites - All Passes

Search period start: 16 January 2017 05:16
Search period end: 17 January 2017 05:16
Location: Newcastle Observatory, 43.9158°N, 78.5831°W

Satellite Date Start Highest point End Downlink Frequencies (MHz)
Time Altitude Azimuth
Cubesat XI-IV 16 Jan 05:17:49 05:20:24 14° 89° (E) 05:23:00 437.490
GOMX 1 16 Jan 05:18:53 05:22:55 29° 94° (E) 05:26:42 467.674
ISS 16 Jan 05:18:59 05:22:05 39° 23° (NNE) 05:25:10 145.825
STRAND 1 16 Jan 05:32:22 05:36:08 21° 62° (ENE) 05:39:54 437.568
RS-15 16 Jan 05:34:07 05:44:14 28° 4° (N) 05:54:20 29.354- 29.394
NOAA 15 16 Jan 05:43:42 05:48:04 25° 94° (E) 05:52:23 137.62
CUBESAT XI-V 16 Jan 05:51:25 05:53:13 12° 272° (W) 05:55:02 437.345
HORYU 2 16 Jan 05:55:22 05:59:51 84° 106° (ESE) 06:04:17 437.375
AO-7 16 Jan 06:04:58 06:11:32 27° 308° (NW) 06:18:04 29.400- 29.500
PHONESAT 2.4 16 Jan 06:05:57 06:08:07 33° 177° (S) 06:10:17 2401.200-2431.200
LilacSat-2 16 Jan 06:07:41 06:11:22 42° 98° (E) 06:15:03 437.200
CUTE-I 16 Jan 06:14:19 06:19:27 45° 99° (E) 06:24:32 437.470
GONETS M04 16 Jan 06:17:16 06:24:47 30° 66° (ENE) 06:32:17
NOAA 18 16 Jan 06:19:53 06:24:31 28° 95° (E) 06:29:08 137.9125
AIST 2 16 Jan 06:22:41 06:26:32 34° 244° (WSW) 06:30:21 435.215
DOVE 4 16 Jan 06:23:19 06:27:31 53° 100° (E) 06:31:34 437.250
BRITE-PL 16 Jan 06:27:26 06:31:38 26° 296° (WNW) 06:35:34 437.365/2234.400
O/OREOS (USA 219) 16 Jan 06:31:23 06:34:36 20° 101° (ESE) 06:37:49 437.305
Cosmos 2499 16 Jan 06:38:57 06:45:47 41° 73° (ENE) 06:52:21 435.465 / 435.565
DANDE 16 Jan 06:40:14 06:41:02 10° 305° (NW) 06:41:50 436.750
CINEMA 3 16 Jan 06:51:28 06:54:52 24° 94° (E) 06:58:18 145.822/145.860
CANX-2 16 Jan 06:53:01 06:55:56 18° 92° (E) 06:58:50 2200.000
ISS 16 Jan 06:55:33 06:58:31 33° 221° (SW) 07:01:29 145.825
Cubesat XI-IV 16 Jan 06:55:46 07:01:06 81° 287° (WNW) 07:06:27 437.490
GOMX 1 16 Jan 06:57:02 07:00:57 28° 294° (WNW) 07:04:39 467.674
HO-68 16 Jan 07:09:02 07:15:17 31° 95° (E) 07:21:28 435.675
STRAND 1 16 Jan 07:09:58 07:14:55 53° 259° (W) 07:19:56 437.568
SEEDS 16 Jan 07:14:42 07:17:32 17° 91° (E) 07:20:23 437.485
NOAA 15 16 Jan 07:22:57 07:28:01 45° 291° (WNW) 07:33:02 137.62
COMPASS 1 16 Jan 07:29:48 07:32:31 17° 91° (E) 07:35:13 437.405
HORYU 2 16 Jan 07:34:14 07:35:43 12° 301° (WNW) 07:37:12 437.375
PHONESAT 2.4 16 Jan 07:40:07 07:42:05 23° 193° (SSW) 07:44:02 2401.200-2431.200
LilacSat-2 16 Jan 07:42:58 07:45:20 16° 295° (WNW) 07:47:41 437.200
AAUSAT CUBESAT 2 16 Jan 07:45:59 07:49:00 19° 92° (E) 07:52:00 437.432
RS-15 16 Jan 07:49:09 08:00:58 46° 37° (NE) 08:12:27 29.354- 29.394
ZACube-1 16 Jan 07:53:56 07:55:06 11° 89° (E) 07:56:16 437.345
CUTE-I 16 Jan 07:54:53 07:59:14 26° 296° (WNW) 08:03:36 437.470
CUTE 1.7 + AOD 2 16 Jan 07:59:32 08:03:51 79° 101° (E) 08:08:09 437.475
NOAA 18 16 Jan 08:00:11 08:05:18 42° 293° (WNW) 08:10:24 137.9125
DOVE 4 16 Jan 08:02:20 08:04:46 15° 298° (WNW) 08:07:09 437.250
O/OREOS (USA 219) 16 Jan 08:09:24 08:13:41 43° 299° (WNW) 08:17:58 437.305
GONETS M04 16 Jan 08:13:34 08:22:17 66° 267° (W) 08:30:59
CUBEBUG 2 16 Jan 08:18:52 08:23:03 52° 100° (E) 08:27:19 437.445
PRISM 16 Jan 08:25:26 08:29:31 57° 73° (ENE) 08:33:38 437.425
CANX-2 16 Jan 08:27:53 08:32:00 44° 289° (WNW) 08:36:05 2200.000
CINEMA 3 16 Jan 08:28:25 08:32:02 29° 291° (WNW) 08:35:41 145.822/145.860
Cosmos 2499 16 Jan 08:32:20 08:38:46 36° 274° (W) 08:45:02 435.465 / 435.565
Oscar 11 16 Jan 08:37:30 08:41:14 27° 95° (E) 08:44:58 145.826/435.025
Cubesat XI-IV 16 Jan 08:38:07 08:40:20 13° 304° (NW) 08:42:32 437.490
SO-50 16 Jan 08:46:51 08:51:14 38° 117° (ESE) 08:55:34 436.795
SEEDS 16 Jan 08:49:23 08:53:27 44° 288° (WNW) 08:57:29 437.485
UNISAT 6 16 Jan 08:55:54 08:59:46 34° 69° (ENE) 09:03:38 437.425
HO-68 16 Jan 08:56:19 09:03:17 55° 293° (WNW) 09:10:12 435.675
UWE-3 16 Jan 08:57:38 09:01:57 88° 103° (ESE) 09:06:22 435.000/436.395/437.385
JAS-2 16 Jan 09:01:31 09:04:58 18° 57° (ENE) 09:08:36 435.910
COMPASS 1 16 Jan 09:04:15 09:08:18 45° 288° (WNW) 09:12:18 437.405
FUNcube-1 16 Jan 09:07:18 09:11:35 62° 100° (E) 09:15:58 145.935
TIGRISAT 16 Jan 09:10:33 09:14:38 46° 72° (ENE) 09:18:42 435.000
AAUSAT CUBESAT 2 16 Jan 09:20:42 09:24:37 38° 289° (WNW) 09:28:29 437.432
ANTELSAT 16 Jan 09:24:20 09:28:34 70° 75° (ENE) 09:32:49 437.575/2403.000
ZACube-1 16 Jan 09:27:31 09:31:50 73° 285° (WNW) 09:36:14 437.345
CUTE 1.7 + AOD 2 16 Jan 09:37:38 09:39:03 11° 300° (WNW) 09:40:28 437.475
PCSat 16 Jan 09:44:48 09:49:30 28° 46° (NE) 09:54:09 145.827
DELFI C3 16 Jan 09:45:17 09:49:13 50° 99° (E) 09:53:05 145.870
QB50P1 16 Jan 09:49:10 09:51:22 14° 62° (ENE) 09:53:34 145.935-145.965
POLYITAN 1 16 Jan 09:51:33 09:53:55 15° 63° (ENE) 09:56:18 437.675
QB50P2 16 Jan 09:52:20 09:54:57 16° 63° (ENE) 09:57:34 145.880/145.840
CUBEBUG 2 16 Jan 09:56:41 09:59:18 16° 296° (WNW) 10:01:56 437.445
RS-15 16 Jan 10:02:07 10:14:20 69° 243° (WSW) 10:26:03 29.354- 29.394
PRISM 16 Jan 10:03:09 10:05:09 13° 269° (W) 10:07:10 437.425
Oscar 11 16 Jan 10:13:33 10:17:20 29° 292° (WNW) 10:21:06 145.826/435.025
GONETS M04 16 Jan 10:14:04 10:17:15 12° 288° (WNW) 10:20:26
POPSAT HIP 1 16 Jan 10:14:11 10:17:35 24° 67° (ENE) 10:20:59 437.405
HUMSAT D 16 Jan 10:21:17 10:25:32 71° 101° (E) 10:29:49 437.325/437.525
SO-50 16 Jan 10:27:34 10:31:45 31° 315° (NW) 10:35:55 436.795
DUCHIFAT 1 16 Jan 10:30:47 10:34:28 31° 69° (ENE) 10:38:09 145.980
UNISAT 6 16 Jan 10:33:15 10:36:34 22° 266° (W) 10:39:53 437.425
NANOSAT C BR1 16 Jan 10:33:34 10:37:24 36° 70° (ENE) 10:41:15 145.865
UWE-3 16 Jan 10:37:09 10:37:46 10° 300° (WNW) 10:38:23 435.000/436.395/437.385
JAS-2 16 Jan 10:44:09 10:49:21 70° 258° (WSW) 10:55:01 435.910
FUNcube-1 16 Jan 10:45:04 10:47:22 14° 297° (WNW) 10:49:41 145.935
HO-68 16 Jan 10:46:57 10:49:27 12° 314° (NW) 10:51:58 435.675
TIGRISAT 16 Jan 10:48:52 10:51:34 16° 268° (W) 10:54:17 435.000
ANTELSAT 16 Jan 11:04:39 11:05:45 11° 271° (W) 11:06:53 437.575/2403.000
BY70-1 16 Jan 11:10:35 11:14:03 70° 101° (ESE) 11:17:22 436.1900
DELFI C3 16 Jan 11:21:21 11:23:36 15° 297° (WNW) 11:25:51 145.870
QB50P1 16 Jan 11:22:31 11:26:39 59° 259° (W) 11:30:50 145.935-145.965
BUGSAT 1 16 Jan 11:24:42 11:28:35 43° 72° (ENE) 11:32:26 437.445
POLYITAN 1 16 Jan 11:25:10 11:29:16 55° 260° (W) 11:33:24 437.675
QB50P2 16 Jan 11:26:16 11:30:21 50° 260° (W) 11:34:28 145.880/145.840
CUBEBUG 1 16 Jan 11:26:47 11:30:30 27° 95° (E) 11:34:12 437.445
PCSat 16 Jan 11:27:53 11:33:09 52° 245° (WSW) 11:38:23 145.827
AISAT 16 Jan 11:30:53 11:34:09 20° 93° (E) 11:37:23 437.250
Oscar 19 16 Jan 11:31:09 11:34:45 19° 61° (ENE) 11:38:21 437.125/150
ESTCUBE 1 16 Jan 11:31:52 11:36:20 53° 100° (E) 11:40:45 437.505/2401.250
SPROUT 16 Jan 11:33:26 11:35:51 15° 91° (E) 11:38:15 437.525
POPSAT HIP 1 16 Jan 11:49:29 11:53:13 31° 263° (W) 11:56:58 437.405
50 SAT 16 Jan 11:57:36 12:00:37 25° 96° (E) 12:03:34 437.505
HUMSAT D 16 Jan 11:58:47 12:00:35 13° 299° (WNW) 12:02:25 437.325/437.525
VELOX 1 16 Jan 12:03:54 12:08:05 41° 98° (E) 12:12:15 145.980
DUCHIFAT 1 16 Jan 12:06:48 12:10:10 23° 265° (W) 12:13:32 145.980
NANOSAT C BR1 16 Jan 12:10:07 12:13:13 20° 266° (W) 12:16:22 145.865
RS-15 16 Jan 12:17:45 12:24:18 17° 266° (W) 12:30:45 29.354- 29.394
Cosmos 2491 16 Jan 12:27:43 12:35:08 29° 66° (ENE) 12:42:31 435.465 / 435.565
YUBILEINY 16 Jan 12:44:18 12:46:46 11° 71° (ENE) 12:49:13 435.215
Gurwin Techsat 1B 16 Jan 12:45:08 12:50:10 45° 69° (ENE) 12:55:13 435.225
DX 1 16 Jan 12:51:37 12:55:57 66° 102° (ESE) 13:00:15 434.975-435.025
UKube-1 16 Jan 13:00:11 13:04:27 59° 101° (ESE) 13:08:42 .
BUGSAT 1 16 Jan 13:01:35 13:04:09 16° 268° (W) 13:06:42 437.445
CUBEBUG 1 16 Jan 13:03:00 13:06:45 29° 292° (WNW) 13:10:28 437.445
AISAT 16 Jan 13:06:39 13:10:46 40° 290° (WNW) 13:14:51 437.250
SPROUT 16 Jan 13:07:56 13:12:05 52° 288° (WNW) 13:16:12 437.525
Oscar 19 16 Jan 13:08:26 13:13:34 63° 258° (WSW) 13:18:45 437.125/150
ESTCUBE 1 16 Jan 13:09:42 13:12:44 18° 297° (WNW) 13:15:43 437.505/2401.250
TISAT 1 16 Jan 13:17:08 13:20:45 28° 96° (E) 13:24:20 437.305
AO-7 16 Jan 13:20:39 13:27:38 31° 54° (NE) 13:34:39 29.400- 29.500
50 SAT 16 Jan 13:30:56 13:33:42 21° 292° (WNW) 13:36:28 437.505
AIST 1 16 Jan 13:40:47 13:43:56 20° 87° (E) 13:47:06
VELOX 1 16 Jan 13:41:00 13:44:16 21° 296° (WNW) 13:47:30 145.980
CUSAT 1 16 Jan 13:41:29 13:48:33 35° 68° (ENE) 13:55:34 437.405
ITAMSAT 1 16 Jan 13:41:44 13:46:18 32° 66° (ENE) 13:50:52 435.822/435.867
DANDE 16 Jan 13:46:06 13:50:13 15° 60° (ENE) 13:54:36 436.750
ITUPSAT 1 16 Jan 14:18:58 14:23:02 26° 95° (E) 14:27:03 437.325
Cosmos 2491 16 Jan 14:24:00 14:32:40 67° 267° (W) 14:41:21 435.465 / 435.565
Gurwin Techsat 1B 16 Jan 14:26:00 14:30:18 25° 266° (W) 14:34:38 435.225
DX 1 16 Jan 14:29:24 14:31:36 14° 299° (WNW) 14:33:47 434.975-435.025
AO-85 16 Jan 14:30:21 14:34:28 30° 116° (ESE) 14:38:21 145.980
YUBILEINY 16 Jan 14:32:58 14:41:36 63° 91° (E) 14:50:16 435.215
UKube-1 16 Jan 14:37:35 14:40:00 15° 299° (WNW) 14:42:25 .
Cosmos 2504 16 Jan 14:50:18 14:58:27 45° 88° (E) 15:06:12 435.465 / 435.565
TISAT 1 16 Jan 14:52:49 14:56:18 26° 293° (WNW) 14:59:47 437.305
BEESAT 16 Jan 14:56:17 15:01:03 63° 101° (ESE) 15:05:47 436.000
SWISSCUBE 16 Jan 14:57:24 15:02:13 72° 103° (ESE) 15:07:00 437.505
AO-7 16 Jan 15:11:28 15:19:47 70° 255° (WSW) 15:28:11 29.400- 29.500
AIST 1 16 Jan 15:17:10 15:21:15 37° 284° (WNW) 15:25:20
ITAMSAT 1 16 Jan 15:21:03 15:25:42 34° 263° (W) 15:30:23 435.822/435.867
HORYU 2 16 Jan 15:21:52 15:22:57 11° 58° (ENE) 15:24:02 437.375
CUSAT 1 16 Jan 15:23:08 15:30:50 58° 266° (W) 15:38:22 437.405
DANDE 16 Jan 15:26:42 15:33:59 68° 78° (ENE) 15:42:16 436.750
MOZHAYETS 4 16 Jan 15:32:24 15:36:53 46° 99° (E) 15:41:21
SO-50 16 Jan 15:38:04 15:39:32 11° 29° (NNE) 15:41:00 436.795
ITUPSAT 1 16 Jan 15:56:32 16:00:54 36° 292° (WNW) 16:05:17 437.325
BRITE-PL 16 Jan 15:59:11 16:04:42 55° 72° (ENE) 16:10:14 437.365/2234.400
CUTE-I 16 Jan 16:01:15 16:03:35 13° 56° (NE) 16:05:55 437.470
M-CUBED/EXP-1 PRIME 16 Jan 16:05:36 16:08:47 33° 103° (ESE) 16:11:48 437.505
CUBESAT XI-V 16 Jan 16:06:50 16:09:57 17° 91° (E) 16:13:02 437.345
AO-85 16 Jan 16:10:32 16:14:49 36° 312° (NW) 16:18:50 145.980
STARS 16 Jan 16:15:35 16:18:42 19° 93° (E) 16:21:48 437.465
Cosmos 2491 16 Jan 16:24:25 16:27:42 13° 288° (WNW) 16:31:00 435.465 / 435.565
GOMX 1 16 Jan 16:26:57 16:32:04 43° 70° (ENE) 16:37:01 467.674
YUBILEINY 16 Jan 16:31:21 16:38:58 32° 293° (WNW) 16:46:40 435.215
BEESAT 16 Jan 16:35:18 16:38:20 17° 299° (WNW) 16:41:21 436.000
SWISSCUBE 16 Jan 16:36:44 16:39:25 15° 300° (WNW) 16:42:06 437.505
O/OREOS (USA 219) 16 Jan 16:38:29 16:42:52 48° 62° (ENE) 16:47:14 437.305
Cubesat XI-IV 16 Jan 16:40:24 16:44:49 27° 64° (ENE) 16:49:14 437.490
Cosmos 2504 16 Jan 16:43:40 16:51:51 43° 287° (WNW) 16:59:40 435.465 / 435.565
KKS-1 16 Jan 16:45:05 16:49:32 84° 101° (E) 16:53:58 437.445
AUBIESAT-1 16 Jan 16:46:02 16:49:31 87° 286° (WNW) 16:52:48 437.475
BEESAT 3 16 Jan 16:50:14 16:53:14 21° 113° (ESE) 16:56:15 437.485
LilacSat-2 16 Jan 16:51:11 16:54:19 25° 69° (ENE) 16:57:29 437.200
HORYU 2 16 Jan 16:54:23 16:58:48 89° 254° (WSW) 17:03:14 437.375
NOAA 15 16 Jan 17:04:50 17:09:51 46° 69° (ENE) 17:14:55 137.62
CUSAT 1 16 Jan 17:08:52 17:11:12 12° 285° (WNW) 17:13:31 437.405
DANDE 16 Jan 17:10:12 17:16:19 29° 273° (W) 17:23:02 436.750
MOZHAYETS 4 16 Jan 17:10:19 17:13:44 21° 296° (WNW) 17:17:08
AO-7 16 Jan 17:10:21 17:14:01 13° 274° (W) 17:17:42 29.400- 29.500
SO-50 16 Jan 17:16:40 17:21:06 50° 50° (NE) 17:25:27 436.795
BEESAT 2 16 Jan 17:25:04 17:28:08 22° 113° (ESE) 17:31:15 435.950
DOVE 4 16 Jan 17:29:01 17:34:05 67° 74° (ENE) 17:38:54 437.250
CUTE-I 16 Jan 17:37:29 17:42:48 83° 74° (ENE) 17:48:09 437.470
BRITE-PL 16 Jan 17:39:00 17:43:26 23° 269° (W) 17:47:54 437.365/2234.400
HO-68 16 Jan 17:39:37 17:45:32 29° 58° (ENE) 17:51:26 435.675
M-CUBED/EXP-1 PRIME 16 Jan 17:40:52 17:43:01 16° 301° (WNW) 17:45:06 437.505
CUBESAT XI-V 16 Jan 17:43:03 17:47:38 53° 288° (WNW) 17:52:11 437.345
NOAA 18 16 Jan 17:47:16 17:52:41 61° 71° (ENE) 17:58:06 137.9125
CANX-2 16 Jan 17:47:39 17:50:12 16° 63° (ENE) 17:52:46 2200.000
STARS 16 Jan 17:51:06 17:55:14 42° 290° (WNW) 17:59:21 437.465
CINEMA 3 16 Jan 17:54:17 17:58:05 28° 69° (ENE) 18:01:47 145.822/145.860
GOMX 1 16 Jan 18:05:37 18:10:13 27° 266° (W) 18:14:44 467.674
SEEDS 16 Jan 18:08:15 18:10:42 15° 63° (ENE) 18:13:09 437.485
O/OREOS (USA 219) 16 Jan 18:18:53 18:21:52 18° 260° (W) 18:24:52 437.305
Cubesat XI-IV 16 Jan 18:19:37 18:24:40 43° 262° (W) 18:29:44 437.490
COMPASS 1 16 Jan 18:22:26 18:24:42 14° 63° (ENE) 18:26:59 437.405
KKS-1 16 Jan 18:24:00 18:25:25 11° 301° (WNW) 18:26:51 437.445
LilacSat-2 16 Jan 18:25:30 18:28:33 23° 265° (W) 18:31:38 437.200
BEESAT 3 16 Jan 18:26:59 18:30:37 37° 311° (NW) 18:34:20 437.485
AAUSAT CUBESAT 2 16 Jan 18:37:57 18:40:32 16° 64° (ENE) 18:43:07 437.432
NOAA 15 16 Jan 18:45:34 18:49:50 24° 266° (W) 18:54:07 137.62
ZACube-1 16 Jan 18:52:17 18:52:58 10° 60° (ENE) 18:53:39 437.345
CUTE 1.7 + AOD 2 16 Jan 18:53:06 18:57:17 64° 74° (ENE) 19:01:31 437.475
SO-50 16 Jan 18:57:55 19:01:12 20° 248° (WSW) 19:04:26 436.795
BEESAT 2 16 Jan 19:02:01 19:05:43 37° 311° (NW) 19:09:28 435.950
DOVE 4 16 Jan 19:09:10 19:12:07 15° 270° (W) 19:15:01 437.250
Cosmos 2499 16 Jan 19:16:38 19:24:06 36° 86° (E) 19:31:07 435.465 / 435.565
CUBEBUG 2 16 Jan 19:18:16 19:22:19 49° 73° (ENE) 19:26:21 437.445
STRAND 1 16 Jan 19:18:50 19:23:48 46° 99° (E) 19:28:43 437.568
GONETS M04 16 Jan 19:20:56 19:28:13 31° 83° (E) 19:35:33
CUTE-I 16 Jan 19:21:08 19:23:30 13° 272° (W) 19:25:53 437.470
CANX-2 16 Jan 19:21:29 19:25:37 53° 261° (W) 19:29:49 2200.000
HO-68 16 Jan 19:25:38 19:32:45 64° 257° (WSW) 19:39:56 435.675
NOAA 18 16 Jan 19:29:50 19:33:45 20° 268° (W) 19:37:39 137.9125
CINEMA 3 16 Jan 19:31:14 19:35:10 29° 264° (W) 19:38:59 145.822/145.860
Oscar 11 16 Jan 19:33:39 19:37:12 25° 67° (ENE) 19:40:46 145.826/435.025
SEEDS 16 Jan 19:41:50 19:45:57 54° 261° (W) 19:50:07 437.485
COMPASS 1 16 Jan 19:55:39 19:59:46 58° 259° (W) 20:03:56 437.405
UWE-3 16 Jan 19:55:49 19:59:59 82° 77° (ENE) 20:04:08 435.000/436.395/437.385
FUNcube-1 16 Jan 20:04:03 20:08:04 54° 73° (ENE) 20:12:08 145.935
AAUSAT CUBESAT 2 16 Jan 20:11:34 20:15:36 50° 261° (W) 20:19:41 437.432
AIST 2 16 Jan 20:21:00 20:24:43 34° 116° (ESE) 20:28:30 435.215
ZACube-1 16 Jan 20:24:28 20:28:36 80° 258° (WSW) 20:32:46 437.345
CUTE 1.7 + AOD 2 16 Jan 20:31:56 20:33:33 12° 271° (W) 20:35:10 437.475
DELFI C3 16 Jan 20:32:01 20:35:39 34° 70° (ENE) 20:39:19 145.870
CUBEBUG 2 16 Jan 20:56:54 20:59:15 15° 269° (W) 21:01:34 437.445
STRAND 1 16 Jan 20:58:37 21:02:41 24° 297° (WNW) 21:06:45 437.568
Cosmos 2499 16 Jan 21:08:42 21:16:58 52° 284° (WNW) 21:24:42 435.465 / 435.565
Oscar 11 16 Jan 21:09:22 21:13:12 31° 264° (W) 21:17:05 145.826/435.025
HUMSAT D 16 Jan 21:13:33 21:17:32 55° 73° (ENE) 21:21:35 437.325/437.525
ANTELSAT 16 Jan 21:15:53 21:17:58 13° 90° (E) 21:20:04 437.575/2403.000
GONETS M04 16 Jan 21:15:55 21:24:29 60° 283° (WNW) 21:33:09
HO-68 16 Jan 21:20:49 21:21:49 10° 276° (W) 21:22:50 435.675
BY70-1 16 Jan 21:28:11 21:30:03 16° 65° (ENE) 21:32:01 436.1900
PRISM 16 Jan 21:40:29 21:44:38 77° 103° (ESE) 21:48:43 437.425
FUNcube-1 16 Jan 21:42:44 21:44:40 13° 270° (W) 21:46:38 145.935
JAS-2 16 Jan 21:51:14 21:55:52 18° 89° (E) 22:00:42 435.910
AIST 2 16 Jan 21:59:37 22:03:13 28° 315° (NW) 22:06:53 435.215
DELFI C3 16 Jan 22:07:36 22:10:33 20° 267° (W) 22:13:31 145.870
RS-15 16 Jan 22:19:57 22:26:48 18° 95° (E) 22:33:44 29.354- 29.394
UNISAT 6 16 Jan 22:21:49 22:26:12 66° 102° (ESE) 22:30:39 437.425
CUBEBUG 1 16 Jan 22:23:54 22:27:40 28° 68° (ENE) 22:31:26 437.445
SPROUT 16 Jan 22:28:37 22:30:58 15° 62° (ENE) 22:33:19 437.525
AISAT 16 Jan 22:29:27 22:32:54 23° 65° (ENE) 22:36:22 437.250
ESTCUBE 1 16 Jan 22:32:22 22:36:48 57° 72° (ENE) 22:41:16 437.505/2401.250
50 SAT 16 Jan 22:34:38 22:36:34 14° 64° (ENE) 22:38:30 437.505
TIGRISAT 16 Jan 22:36:31 22:40:55 87° 103° (ESE) 22:45:24 435.000
ANTELSAT 16 Jan 22:50:43 22:55:04 63° 286° (WNW) 22:59:29 437.575/2403.000
HUMSAT D 16 Jan 22:51:39 22:53:31 13° 270° (W) 22:55:24 437.325/437.525
BY70-1 16 Jan 22:57:49 23:00:15 24° 265° (W) 23:02:52 436.1900
AO-85 16 Jan 23:00:10 23:03:47 34° 48° (NE) 23:07:22 145.980
VELOX 1 16 Jan 23:02:09 23:06:23 44° 71° (ENE) 23:10:37 145.980
QB50P1 16 Jan 23:06:25 23:09:28 19° 93° (E) 23:12:31 145.935-145.965
POLYITAN 1 16 Jan 23:09:04 23:12:17 21° 94° (E) 23:15:29 437.675
QB50P2 16 Jan 23:10:02 23:13:24 23° 94° (E) 23:16:45 145.880/145.840
Cosmos 2499 16 Jan 23:11:42 23:12:07 10° 307° (NW) 23:12:31 435.465 / 435.565
PRISM 16 Jan 23:18:06 23:19:18 11° 300° (WNW) 23:20:29 437.425
GONETS M04 16 Jan 23:19:55 23:23:31 13° 308° (NW) 23:27:11
POPSAT HIP 1 16 Jan 23:32:16 23:36:09 35° 97° (E) 23:40:02 437.405
JAS-2 16 Jan 23:34:33 23:41:31 90° 112° (ESE) 23:49:12 435.910
ISS 16 Jan 23:36:08 23:39:05 32° 139° (SE) 23:42:02 145.825
DX 1 16 Jan 23:48:03 23:52:23 68° 74° (ENE) 23:56:44 434.975-435.025
DUCHIFAT 1 16 Jan 23:48:18 23:52:21 46° 99° (E) 23:56:23 145.980
NANOSAT C BR1 16 Jan 23:51:34 23:55:42 55° 100° (E) 23:59:49 145.865
UKube-1 16 Jan 23:55:36 23:59:51 60° 73° (ENE) 00:04:08 .
CUBEBUG 1 17 Jan 00:00:00 00:03:52 29° 264° (W) 00:07:44 437.445
UNISAT 6 17 Jan 00:00:08 00:02:25 14° 298° (WNW) 00:04:42 437.425
SPROUT 17 Jan 00:02:13 00:06:25 58° 259° (W) 00:10:38 437.525
AISAT 17 Jan 00:04:58 00:09:08 38° 262° (W) 00:13:19 437.250
50 SAT 17 Jan 00:06:03 00:09:26 41° 261° (W) 00:12:51 437.505
TISAT 1 17 Jan 00:10:03 00:13:31 26° 67° (ENE) 00:16:59 437.305
ESTCUBE 1 17 Jan 00:11:20 00:13:58 15° 270° (W) 00:16:37 437.505/2401.250
TIGRISAT 17 Jan 00:15:53 00:16:57 11° 300° (WNW) 00:18:01 435.000
RS-15 17 Jan 00:25:07 00:36:52 72° 117° (ESE) 00:49:06 29.354- 29.394
PCSat 17 Jan 00:29:46 00:33:02 16° 104° (ESE) 00:36:19 145.827
BEESAT 17 Jan 00:30:11 00:31:33 11° 57° (ENE) 00:32:55 436.000
SWISSCUBE 17 Jan 00:30:38 00:32:40 13° 58° (ENE) 00:34:42 437.505
VELOX 1 17 Jan 00:39:53 00:43:03 19° 267° (W) 00:46:12 145.980
BUGSAT 1 17 Jan 00:39:54 00:43:54 62° 101° (E) 00:47:54 437.445
AO-85 17 Jan 00:40:54 00:44:00 23° 246° (WSW) 00:47:04 145.980
QB50P1 17 Jan 00:41:28 00:45:22 38° 290° (WNW) 00:49:17 145.935-145.965
YUBILEINY 17 Jan 00:41:41 00:49:30 33° 68° (ENE) 00:57:13 435.215
Cosmos 2504 17 Jan 00:43:02 00:47:10 15° 58° (ENE) 00:51:11 435.465 / 435.565
POLYITAN 1 17 Jan 00:44:18 00:48:10 36° 290° (WNW) 00:52:02 437.675
QB50P2 17 Jan 00:45:28 00:49:15 33° 291° (WNW) 00:53:02 145.880/145.840
Gurwin Techsat 1B 17 Jan 01:01:05 01:04:14 16° 90° (E) 01:07:23 435.225
BEESAT 3 17 Jan 01:05:08 01:08:25 24° 44° (NE) 01:11:40 437.485
POPSAT HIP 1 17 Jan 01:08:30 01:11:44 22° 294° (WNW) 01:14:57 437.405
ISS 17 Jan 01:12:25 01:15:31 40° 337° (NNW) 01:18:37 145.825
Oscar 19 17 Jan 01:18:38 01:23:33 41° 98° (E) 01:28:23 437.125/150
JAS-2 17 Jan 01:21:03 01:25:49 21° 302° (WNW) 01:30:55 435.910
AIST 1 17 Jan 01:22:18 01:26:33 57° 79° (E) 01:30:44
DUCHIFAT 1 17 Jan 01:24:56 01:27:41 17° 296° (WNW) 01:30:26 145.980
ITUPSAT 1 17 Jan 01:26:53 01:31:12 36° 68° (ENE) 01:35:34 437.325
DX 1 17 Jan 01:27:18 01:29:01 12° 270° (W) 01:30:44 434.975-435.025
NANOSAT C BR1 17 Jan 01:28:36 01:30:59 15° 297° (WNW) 01:33:21 145.865
Cosmos 2491 17 Jan 01:31:35 01:38:49 31° 82° (E) 01:46:04 435.465 / 435.565
UKube-1 17 Jan 01:34:08 01:36:16 13° 269° (W) 01:38:24 .
BEESAT 2 17 Jan 01:40:50 01:44:13 24° 44° (NE) 01:47:34 435.950
TISAT 1 17 Jan 01:45:25 01:49:03 29° 264° (W) 01:52:43 437.305
AUBIESAT-1 17 Jan 01:59:38 02:02:17 16° 59° (ENE) 02:04:50 437.475
BEESAT 17 Jan 02:03:48 02:08:33 84° 75° (ENE) 02:13:20 436.000
SWISSCUBE 17 Jan 02:04:59 02:09:45 85° 253° (WSW) 02:14:33 437.505
PCSat 17 Jan 02:10:22 02:15:46 75° 302° (WNW) 02:21:14 145.827
KKS-1 17 Jan 02:11:33 02:12:41 11° 58° (ENE) 02:13:49 437.445
BUGSAT 1 17 Jan 02:17:03 02:18:47 12° 298° (WNW) 02:20:29 437.445
Cosmos 2504 17 Jan 02:34:27 02:42:02 80° 80° (E) 02:49:13 435.465 / 435.565
MOZHAYETS 4 17 Jan 02:35:22 02:39:47 51° 72° (ENE) 02:44:14
YUBILEINY 17 Jan 02:38:10 02:46:47 59° 269° (W) 02:55:18 435.215
RS-15 17 Jan 02:38:56 02:50:20 45° 324° (NW) 03:02:05 29.354- 29.394
Gurwin Techsat 1B 17 Jan 02:39:24 02:44:43 71° 287° (WNW) 02:49:59 435.225
BEESAT 3 17 Jan 02:42:25 02:46:10 40° 242° (WSW) 02:49:54 437.485
CUSAT 1 17 Jan 02:46:08 02:49:41 20° 80° (E) 02:53:53 437.405
ISS 17 Jan 02:50:03 02:52:36 20° 357° (N) 02:55:08 145.825
M-CUBED/EXP-1 PRIME 17 Jan 02:51:40 02:56:07 66° 68° (ENE) 03:00:17 437.505
Oscar 19 17 Jan 02:58:21 03:02:39 27° 296° (WNW) 03:06:57 437.125/150
AIST 1 17 Jan 03:01:48 03:03:35 12° 276° (W) 03:05:22
ITUPSAT 1 17 Jan 03:05:09 03:09:06 26° 265° (W) 03:13:06 437.325
CUBESAT XI-V 17 Jan 03:11:23 03:14:51 21° 64° (ENE) 03:18:21 437.345
AO-7 17 Jan 03:11:44 03:19:23 38° 98° (E) 03:26:57 29.400- 29.500
STARS 17 Jan 03:13:32 03:16:50 21° 65° (ENE) 03:20:07 437.465
BEESAT 2 17 Jan 03:18:20 03:22:07 38° 243° (WSW) 03:25:52 435.950
Cosmos 2491 17 Jan 03:26:29 03:35:04 61° 283° (WNW) 03:43:43 435.465 / 435.565
ITAMSAT 1 17 Jan 03:31:38 03:36:51 76° 104° (ESE) 03:42:04 435.822/435.867
AUBIESAT-1 17 Jan 03:32:01 03:36:20 57° 254° (WSW) 03:40:25 437.475
KKS-1 17 Jan 03:44:04 03:48:32 89° 259° (W) 03:53:01 437.445
BEESAT 17 Jan 03:45:45 03:46:57 11° 272° (W) 03:48:09 436.000
PCSat 17 Jan 03:56:46 04:00:07 16° 323° (NW) 04:03:30 145.827
BRITE-PL 17 Jan 04:04:50 04:07:39 15° 87° (E) 04:10:21 437.365/2234.400
MOZHAYETS 4 17 Jan 04:14:14 04:17:15 17° 269° (W) 04:20:16
Gurwin Techsat 1B 17 Jan 04:22:21 04:23:42 11° 305° (NW) 04:25:03 435.225
CUSAT 1 17 Jan 04:26:05 04:30:46 54° 287° (WNW) 04:36:58 437.405
ISS 17 Jan 04:26:53 04:29:46 29° 17° (NNE) 04:32:40 145.825
PHONESAT 2.4 17 Jan 04:28:19 04:30:13 22° 165° (SSE) 04:32:07 2401.200-2431.200
M-CUBED/EXP-1 PRIME 17 Jan 04:28:42 04:30:50 13° 263° (W) 04:32:56 437.505
Cosmos 2504 17 Jan 04:29:35 04:34:20 19° 282° (WNW) 04:38:59 435.465 / 435.565
DANDE 17 Jan 04:38:14 04:41:39 52° 94° (E) 04:46:12 436.750
YUBILEINY 17 Jan 04:40:10 04:41:30 10° 290° (WNW) 04:42:51 435.215
AIST 2 17 Jan 04:40:37 04:44:36 37° 48° (NE) 04:48:32 435.215
HORYU 2 17 Jan 04:45:02 04:47:42 16° 91° (E) 04:50:21 437.375
CUBESAT XI-V 17 Jan 04:47:23 04:51:54 47° 261° (W) 04:56:28 437.345
STARS 17 Jan 04:48:48 04:52:55 40° 261° (W) 04:57:04 437.465
STRAND 1 17 Jan 05:01:19 05:02:46 11° 56° (NE) 05:04:13 437.568
Cosmos 2499 17 Jan 05:09:03 05:10:33 11° 54° (NE) 05:12:03 435.465 / 435.565
